ARIANE 5 DEB (SYLDA), 42817

Orbit data source: Space-Track

ARIANE 5 DEB (SYLDA), 42817 is space debris in HEO originally from a launch on Wed, 28 Jun 2017 UTC launched from the French Guiana (FRGUI). Debris objects in space refer to the collection of defunct objects orbiting the Earth. Examples of debris include non-operational satellites, rocket bodies, and fragments generated from explosions, collisions, or faulty payload assembly.

Loading next visibility...
Identifier
42817, 2017-040D
Orbit
HEO
Country
Flag of FRFR
Related business
Manufacturer
ADS/Bremen
Mission
Spacecraft
Bus & Motor
SYLDA 5, Unknown motor
Mass
440 kg wet, 440 kg dry
Launch date (UTC)
2017-06-28 (8 years ago)
Launch vehicle
Unknown
Launch site
French Guiana (FRGUI)
Object type
Payload
Rocket body
Debris
Shape & HBR
Cyl, 2.8 m
Radar Cross Section
27.391 m², Large (>1 m²)

Expand to show TLE details & history
Last TLE update: 15 hours ago

TLE from 15 hours ago
0 ARIANE 5 DEB (SYLDA)
1 42817U 17040D   25303.57656046  .00046484  00000-0  63966-2 0  9994
2 42817   2.7797 214.9597 5776902 222.6257  74.4088  4.39680166100303
Epoch: 2025-10-30T13:50Z
TLE epoch observation values (Epoch: 2025-10-30T13:50:14.823Z)
Latitude
0.00003°
Longitude
-31.58264°
Altitude
11,900.518 km
Speed
4.277 km/s
True Right ascension
14h 20m 26s
True Declination
0° 00' 00"
Sunlit
Object was in daylight at epoch
Visualization orbit readout
Latitude
Unknown
Longitude
Unknown
Altitude
Unknown
Speed
Unknown
Apparent Right ascension
Unknown
Apparent Declination
Unknown
Sunlit
N/A
Visualization observer readout
Local Sidereal Time
00:15:50
Azimuth
Unknown
Elevation
Unknown
Doppler factor
Unknown
Orbital elements
Apogee altitude
18,461.242 km
Perigee altitude
270.769 km
Semi-major axis
15,744.142 km
Eccentricity
0.57769
Inclination
2.7797°
RAAN
214.9597°
Arg. of periapsis
222.6257°
True anomaly
137.53836°
Mean anomaly
74.4088°
Eccentric anomaly
106.19463°
Mean motion
1.09866 °/min
Orbital period
327.67 mins
BSTAR
0.0063966
Loading maneuver chart data...
Computing Atmospheric mass density...
Loading historical data...
Loading historical data...
Loading historical data...
Loading historical data...
Loading historical data...
Loading historical data...
Loading historical data...
Other satellites on launch #40 in the year 2017 (2017-06-28 UTC)

Documentation

Showing up to 5 results
|